Weather History for Minot AFB, ND

Change the Weather History Date:

Monday, August 12, 2013

  Actual Average Record
Temperature  
Mean Temperature 61 °F -  
Max Temperature 78 °F 79 °F 96 °F (1998)
Min Temperature 45 °F 53 °F 37 °F (2007)
Degree Days  
Heating Degree Days 4    
Growing Degree Days 11 (Base 50)    
Moisture  
Dew Point 50 °F    
Average Humidity 65    
Maximum Humidity 95    
Minimum Humidity 34    
Precipitation  
Precipitation 0.00 in - - ()
Sea Level Pressure  
Sea Level Pressure 30.16 in    
Wind  
Wind Speed 4 mph (NNW)    
Max Wind Speed 10 mph    
Max Gust Speed -    
Visibility 10 miles    
Events      
Averages and records for this station are not official NWS values.
T = Trace of Precipitation, MM = Missing Value Source: NWS Daily Summary

Daily Weather History Graph

Daily Weather History Graph

Search for Another Location

Airport:

Trip Planner

Search our weather history database for the weather conditions in past years. The results will help you decide how hot, cold, wet, or windy it might be!

Date:

Astronomy

Aug. 12, 2013 Rise Set
Actual Time 6:35 AM CDT 9:04 PM CDT
Civil Twilight 6:00 AM CDT 9:39 PM CDT
Nautical Twilight 5:16 AM CDT 10:23 PM CDT
Astronomical Twilight 4:25 AM CDT 11:13 PM CDT
Moon 1:02 PM CDT (8/12) 11:23 PM CDT (8/12)
Length of Visible Light 15h 38m
Length of Day
14h 28m
Waxing Crescent, 31% of the Moon is Illuminated
Aug 12
Waxing Crescent
Aug 14
First Quarter
Aug 20
Full
Aug 28
Last Quarter
Sep 5
New

Hourly Weather History & Observations

Time (CDT) Temp. Windchill Dew Point Humidity Pressure Visibility Wind Dir Wind Speed Gust Speed Precip Events Conditions
12:58 AM 50.0 °F - 47.5 °F 91% 30.15 in 10.0 mi WSW 1.2 mph - N/A   Clear
1:58 AM 49.1 °F - 46.6 °F 91% 30.15 in 10.0 mi West 4.6 mph - N/A   Clear
2:58 AM 47.5 °F - 45.0 °F 91% 30.14 in 10.0 mi SW 2.3 mph - N/A   Clear
3:58 AM 46.2 °F 44.1 °F 44.4 °F 93% 30.14 in 10.0 mi WSW 4.6 mph - N/A   Clear
4:58 AM 46.6 °F - 45.3 °F 95% 30.14 in 10.0 mi WNW 5.8 mph - N/A   Clear
5:58 AM 45.9 °F 43.6 °F 44.4 °F 95% 30.14 in 10.0 mi WNW 4.6 mph - N/A   Clear
6:58 AM 45.5 °F 42.5 °F 44.2 °F 95% 30.14 in 10.0 mi WSW 5.8 mph - N/A   Clear
7:58 AM 52.7 °F - 49.8 °F 90% 30.14 in 10.0 mi WNW 3.5 mph - N/A   Clear
8:58 AM 61.3 °F - 52.7 °F 73% 30.17 in 10.0 mi West 3.5 mph - N/A   Clear
9:58 AM 67.5 °F - 51.6 °F 57% 30.16 in 10.0 mi Variable 2.3 mph - N/A   Clear
10:58 AM 70.5 °F - 48.6 °F 46% 30.17 in 10.0 mi North 2.3 mph - N/A   Clear
11:58 AM 73.2 °F - 48.6 °F 42% 30.18 in 10.0 mi East 4.6 mph - N/A   Clear
12:58 PM 73.6 °F - 49.3 °F 42% 30.18 in 10.0 mi Variable 3.5 mph - N/A   Clear
1:58 PM 75.4 °F - 49.1 °F 39% 30.18 in 10.0 mi Variable 2.3 mph - N/A   Clear
2:58 PM 76.1 °F - 48.2 °F 37% 30.17 in 10.0 mi Variable 2.3 mph - N/A   Clear
3:58 PM 77.2 °F - 46.9 °F 34% 30.16 in 10.0 mi Variable 2.3 mph - N/A   Clear
4:58 PM 77.9 °F - 49.6 °F 37% 30.16 in 10.0 mi Calm Calm - N/A   Clear
5:58 PM 77.5 °F - 49.8 °F 38% 30.14 in 10.0 mi NNE 5.8 mph - N/A   Scattered Clouds
6:58 PM 77.5 °F - 52.7 °F 42% 30.14 in 10.0 mi NE 10.4 mph - N/A   Clear
7:58 PM 75.2 °F - 52.2 °F 44% 30.12 in 10.0 mi ENE 6.9 mph - N/A   Clear
8:58 PM 70.0 °F - 55.8 °F 61% 30.13 in 10.0 mi ENE 5.8 mph - N/A   Clear
9:58 PM 65.8 °F - 56.8 °F 73% 30.15 in 10.0 mi ENE 6.9 mph - N/A   Clear
10:58 PM 63.3 °F - 56.5 °F 78% 30.18 in 10.0 mi East 5.8 mph - N/A   Clear
11:58 PM 61.5 °F - 55.4 °F 80% 30.20 in 10.0 mi ESE 10.4 mph - N/A   Clear